Location: Drainage Ditch Number 9
(43.0330°N, 93.5677°W)
Time: 04:09:02
(UTC+00:00)

Daily predictions for brighter satellites

Satellite Brightness Start Highest point End
(mag) Time Altitude Azimuth Time Altitude Azimuth Time Altitude Azimuth
Cosmos 1461 3.9 02:27:26 10° NNW 02:31:19 34° NE 02:35:02 10° ESE
Cosmos 1934 Rocket 4.5 02:26:04 10° NNW 02:32:07 63° W 02:38:12 10° S
COSMOS 2428 4.5 02:29:52 10° ESE 02:32:11 13° E 02:34:31 10° ENE
Cosmos 1315 Rocket 2.9 02:30:35 10° N 02:34:44 84° E 02:38:49 10° S
ATLAS CENTAUR R/B 3.4 02:32:51 10° N 02:36:02 20° NE 02:39:21 10° E
Cosmos 2237 4.3 02:30:44 10° S 02:36:17 56° ESE 02:41:50 10° NNE
Terra 4.0 02:35:47 10° E 02:37:42 12° ENE 02:39:37 10° NE
Cosmos 1741 Rocket 4.4 02:33:16 10° N 02:38:23 49° ENE 02:43:29 10° SE
Cosmos 1844 Rocket 3.5 02:33:20 10° NNW 02:38:39 39° ENE 02:43:57 10° SE
Cosmos 1626 3.9 02:36:26 10° SE 02:38:49 17° E 02:41:12 10° NE
Cosmos 1707 2.7 02:36:04 10° S 02:39:56 84° E 02:43:51 10° N
NOSS 8 (A) 4.4 02:37:01 10° SW 02:40:34 77° NW 02:43:32 10° NNE
Meteor 1-21 4.3 02:34:57 10° S 02:40:38 86° W 02:46:17 10° N
Cosmos 1025 Rocket 4.4 02:39:00 10° SE 02:42:23 22° E 02:45:46 10° NE
ERS-2 3.7 02:42:58 10° N 02:46:24 39° WNW 02:49:48 10° SW
Ariane Rocket 3.4 02:41:28 10° S 02:46:31 66° WSW 02:51:36 10° NNW
SPOT 3 Rocket 3.6 02:42:46 10° SSE 02:47:53 68° ENE 02:53:03 10° N
SL-4 R/B4.102:49:25ESE02:49:25ESE02:44:17S
CZ-2C R/B 4.2 02:44:23 10° NNE 02:48:59 45° E 02:53:31 10° S
CENTAUR R/B 3.9 02:43:34 10° WSW 02:49:16 45° NW 02:56:04 10° NNE
Cosmos 2263 Rocket 3.5 02:47:47 10° NW 02:52:58 36° WSW 02:58:06 10° S
Lacrosse 5 2.7 02:48:53 10° WNW 02:53:39 43° SW 02:58:25 10° SSE
Cosmos 1758 3.4 02:51:22 10° N 02:55:21 80° W 02:59:18 10° S
FALCON 9 DEB 4.0 02:52:25 10° WSW 02:55:47 53° NNW 02:59:09 10° NE
Lacrosse 5 rocket 0.9 02:53:00 10° SW 02:56:44 71° SE 03:00:20 10° NE
MetOp-B 4.2 02:52:39 10° SSE 02:57:57 69° ENE 03:03:17 10° N
ATLAS 2A CENTAUR R/B 4.3 02:47:41 10° SW 02:58:55 19° S 03:03:32 12° SSE
In-Cosmos 22 4.0 02:53:48 10° S 02:59:04 84° E 03:04:24 10° NNE
USA 245 4.3 02:58:44 12° SSE 03:03:16 58° ENE 03:09:00 10° N
Cosmos 1975 Rocket 3.0 03:00:25 10° S 03:04:45 74° E 03:09:09 10° NNE
Landsat 7 3.9 03:00:06 10° SSE 03:04:52 84° WSW 03:09:39 10° NNW
Cosmos 1727 Rocket 4.1 03:00:06 10° S 03:06:26 86° W 03:12:44 10° N
BREEZE-M DEB (TANK) 3.1 03:02:57 10° NW 03:06:49 41° NNE 03:08:35 13° E
Cosmos 1110 Rocket 3.9 03:04:40 10° S 03:09:48 69° ESE 03:15:00 10° NNE
Resurs 01 Rocket 2.2 03:07:18 10° S 03:11:37 57° W 03:15:58 10° NNW
SL-14 R/B 4.3 03:12:10 16° SE 03:14:34 29° E 03:18:06 10° NNE
KORONAS-FOTON 3.7 03:12:51 10° S 03:16:39 88° WNW 03:20:27 10° N
USA 81 4.5 03:13:52 10° N 03:19:04 63° W 03:24:15 10° S
Cosmos 1953 2.3 03:16:14 10° N 03:20:19 83° E 03:23:32 16° S
Cosmos 2333 Rocket 2.4 03:17:51 10° S 03:23:22 50° ESE 03:28:53 10° NE
Cosmos 1674 2.8 03:20:03 10° SSW 03:23:44 71° W 03:27:27 10° N
Cosmos 2219 Rocket 2.6 03:19:42 10° S 03:25:01 44° ESE 03:30:23 10° NE
BREEZE-M DEB (TANK) 1.3 03:24:54 10° SW 03:27:13 76° SSE 03:31:02 10° ENE
Cosmos 1802 Rocket 4.1 03:22:18 10° N 03:28:35 67° E 03:33:33 17° SSE
Meteor 2-11 Rocket 4.4 03:26:37 10° N 03:32:45 79° E 03:37:36 17° SSE
Cosmos 1459 Rocket 3.9 03:27:03 10° N 03:33:08 88° E 03:38:14 15° S
Cosmos 1844 3.7 03:27:33 10° NNW 03:33:09 84° ENE 03:37:07 20° SSE
FALCON 9 DEB 2.7 03:30:36 10° SW 03:33:43 80° SE 03:36:51 10° NE
Cosmos 1300 3.4 03:36:58 10° N 03:40:34 38° ENE 03:42:05 26° SE
Cosmos 2237 Rocket 3.6 03:44:17 18° ESE 03:45:20 18° E 03:49:04 10° ENE
Geosat 4.1 03:42:57 23° SE 03:46:06 72° ENE 03:51:08 10° NNW
ERS-1 Rocket 3.0 03:44:13 23° SSE 03:47:26 76° ENE 03:52:29 10° N
Cosmos 1544 Rocket 3.6 03:43:36 10° N 03:48:04 80° W 03:50:53 22° S
Cosmos 1340 2.5 03:46:01 22° S 03:48:19 80° E 03:52:06 10° NNE
ARIANE 5 R/B 2.7 03:45:36 22° S 03:48:29 78° WSW 03:53:00 10° NNW
Cosmos 2360 Rocket 3.2 03:43:29 10° SW 03:48:56 49° WNW 03:54:24 10° NNE
Spot 2 Rocket 3.7 03:46:38 19° S 03:50:19 69° WSW 03:55:24 10° NNW
FALCON 9 DEB 3.8 03:47:34 10° WSW 03:50:34 50° NNW 03:53:37 10° NE
Cosmos 1455 Rocket 4.1 03:48:17 10° NNW 03:52:30 42° W 03:56:08 13° SSW
Meteor 1-24 Rocket 4.0 03:49:56 24° SSE 03:52:49 47° E 03:58:03 10° NNE
Cosmos 2322 Rocket 4.3 03:47:56 10° WSW 03:52:50 29° NW 03:57:47 10° N
FALCON 9 DEB 3.5 03:54:28 10° WSW 03:57:31 57° NNW 04:00:37 10° NE
SL-8 R/B 3.8 03:56:08 10° WNW 04:00:51 59° SSW 04:02:54 32° SSE
Cosmos 1864 Rocket 4.4 03:54:39 10° N 04:00:52 87° E 04:04:49 24° S
FALCON 9 DEB 4.1 03:57:54 10° WSW 04:00:53 44° NNW 04:03:54 10° NE
ATLAS 3B R/B 2.7 03:55:57 10° SW 04:02:29 82° NW 04:09:16 10° NE
Cosmos 2123 Rocket 4.1 04:03:19 14° SSW 04:08:50 78° W 04:15:12 10° N
Cosmos 2061 Rocket 4.1 04:02:27 10° N 04:08:54 79° W 04:13:09 23° S
Uosat 12 SS-18 rocket 4.0 04:06:19 14° SSW 04:09:57 78° ESE 04:14:51 10° NE
Cosmos 1461 4.5 04:06:49 10° WNW 04:10:11 24° WSW 04:11:53 18° SSW
Cosmos 389 Rocket 3.5 04:09:09 10° N 04:12:15 31° ENE 04:12:39 30° E
Cosmos 1626 3.8 04:10:29 10° SW 04:13:45 30° WNW 04:17:03 10° NNW
Cosmos 2322 4.1 04:09:09 10° SW 04:14:45 65° WNW 04:20:23 10° NNE
Terra 1.8 04:12:29 32° S 04:14:45 84° WSW 04:19:33 10° NNW
Cosmos 1302 Rocket 4.2 04:09:54 10° SSW 04:15:08 70° WNW 04:20:24 10° NNE
ATLAS CENTAUR R/B 1.7 04:10:55 10° NW 04:15:15 63° WSW 04:16:58 36° S
COSMOS 2428 2.7 04:10:07 12° SSW 04:15:34 90° ESE 04:21:21 10° NNE
Cosmos 2233 Rocket 4.0 04:10:15 10° N 04:16:25 73° E 04:19:39 30° SSE
SL-12 R/B (Aux Motor) 4.4 04:15:50 43° SSW 04:16:32 61° SSE 04:22:11 10° ENE
Cosmos 1346 Rocket 3.1 04:17:00 42° SE 04:17:48 50° E 04:21:42 10° NNE
SPOT 5 3.4 04:15:59 24° S 04:18:54 55° W 04:23:44 10° NNW
Cosmos 2278 Rocket 2.9 04:14:19 10° NNW 04:19:44 43° ENE 04:22:35 25° ESE
Cosmos 1536 Rocket 4.0 04:17:04 21° SSW 04:19:55 60° W 04:24:20 10° N
Cosmos 1844 Rocket 4.0 04:17:26 10° NW 04:22:25 32° WSW 04:25:49 18° SSW
SL-4 R/B 1.8 04:23:58 15° SW 04:27:17 62° SE 04:31:07 10° ENE
Cosmos 2228 3.2 04:23:27 10° N 04:27:50 61° E 04:29:00 44° SE
USA 215 3.4 04:22:18 10° ENE 04:28:36 48° SE 04:32:55 20° SSW
Lacrosse 5 rocket 3.9 04:33:25 10° WNW 04:36:08 19° NNW 04:38:49 10° NNE
Cosmos 1867 3.5 04:34:50 10° NNW 04:40:21 86° ENE 04:42:25 40° SE
Cosmos 1943 Rocket 4.4 04:44:47 10° N 04:48:17 17° NE 04:51:46 10° E
Cosmos 1607 4.3 04:42:22 10° NNW 04:48:44 60° NE 04:51:55 29° ESE
Iridium 2 3.6 04:49:17 64° ESE 04:49:25 64° E 04:53:08 10° N
Meteor 2-10 Rocket 3.4 04:44:31 10° NNW 04:49:34 74° W 04:51:13 43° S
Cosmos 968 Rocket 3.8 04:46:49 10° NNW 04:51:49 54° WSW 04:53:28 38° SSW
Cosmos 1486 Rocket 4.0 04:48:54 10° NNW 04:54:06 70° WSW 04:55:40 44° S
Cosmos 1980 3.6 04:53:23 38° S 04:55:41 76° ESE 05:01:22 10° NNE
Cosmos 1992 Rocket 4.2 04:57:08 28° SW 04:59:53 67° WNW 05:05:07 10° NNE
USA 267 4.3 04:55:36 10° E 05:01:40 42° NNE 05:07:44 10° NW
Okean 1-7 Rocket 4.0 05:02:36 44° ESE 05:02:55 45° E 05:07:09 10° NNE
Cosmos 1464 Rocket 4.2 04:58:48 10° N 05:05:09 64° E 05:07:30 39° SE
Cosmos 1455 2.0 05:02:27 10° N 05:06:18 81° E 05:06:21 81° E
Cosmos 2333 Rocket 4.1 05:03:02 10° WSW 05:07:53 28° NW 05:12:46 10° N
Cosmos 2219 Rocket 3.9 05:04:08 10° WSW 05:09:06 30° NW 05:14:06 10° N
ATLAS CENTAUR R/B 2.9 05:08:15 46° S 05:09:33 59° ESE 05:20:01 10° NE
Cosmos 1354 Rocket 4.0 05:04:28 10° NNW 05:09:51 80° ENE 05:11:17 50° SSE
Spot 4 3.8 05:10:00 54° SE 05:11:01 73° ENE 05:15:47 10° N
Cosmos 2058 Rocket 3.0 05:09:29 10° N 05:13:56 74° E 05:14:26 65° SE
Cosmos 1726 Rocket 3.7 05:10:51 10° NNW 05:15:17 64° W 05:15:58 55° SW
Meteor 2-1 Rocket 4.2 05:11:21 10° N 05:16:53 72° E 05:18:25 48° SSE
SL-16 R/B 2.6 05:25:28 41° SE 05:26:09 43° ESE 05:31:30 10° NE
Cosmos 2237 Rocket 2.5 05:26:03 30° SW 05:28:48 64° WNW 05:34:24 10° NNE
Cosmos 1184 Rocket 3.7 05:29:27 46° NW 05:29:27 46° NW 05:32:08 10° N
SJ 16-02 2.8 05:26:03 10° N 05:29:48 27° ENE 05:30:54 24° E
Cosmos 1892 Rocket 4.3 05:32:32 39° WSW 05:33:30 46° WNW 05:37:49 10° N
GP-B 4.3 05:30:01 10° NNE 05:33:54 29° E 05:34:10 29° E
Cosmos 2369 Rocket 4.2 05:35:23 10° N 05:39:49 22° NE 05:44:11 10° E
Cosmos 2034 Rocket 3.9 05:34:34 10° N 05:40:47 84° E 05:42:38 49° SSE
ALOS 2 2.4 05:43:59 78° SSE 05:44:17 90° W 05:48:42 10° NNW
USA 229 DEB 4.2 05:44:47 35° SE 05:45:28 36° ESE 05:51:26 10° NE
USA 229 4.2 05:44:54 34° SE 05:45:34 35° ESE 05:51:32 10° NE
COBE Rocket 4.0 05:47:21 56° SSW 05:48:11 66° W 05:53:06 10° NNW
GEOS 3 Rocket 3.6 05:47:15 55° S 05:48:20 72° SW 05:53:41 10° NW
SAR-Lupe-2 4.2 05:49:03 10° NNE 05:51:57 51° NE 05:51:57 51° NE
NOSS 3-1 (C) 3.1 05:53:14 56° SSE 05:53:55 61° ESE 05:59:53 10° NE
BREEZE-M DEB (TANK) 4.4 05:57:01 37° SE 05:58:17 40° ESE 06:14:25 10° ENE
Cosmos 1626 Rocket 3.6 06:01:20 66° WSW 06:01:40 70° W 06:06:06 10° N
Aureole 3 4.1 05:58:33 10° N 06:02:25 49° E 06:02:49 47° E
Cosmos 2278 Rocket 3.3 05:58:48 10° NW 06:03:35 29° WSW 06:04:25 28° WSW
NOSS 2-3 (E) 3.8 06:04:41 52° E 06:04:41 52° E 06:08:39 10° NE
Cosmos 1441 Rocket 4.4 06:04:25 33° W 06:04:37 33° WNW 06:08:06 10° N
NOSS 3-1 (A) 3.6 06:04:54 41° ESE 06:05:08 41° ESE 06:10:43 10° NE
Cosmos 1892 4.2 06:05:52 28° E 06:05:52 28° E 06:08:51 10° NNE
Cosmos 2297 3.7 05:59:56 10° NNW 06:05:35 74° ENE 06:07:10 48° SE
SL-4 R/B 3.6 06:03:24 10° W 06:07:02 32° NNW 06:10:26 10° NE
USA 32 3.9 06:02:02 10° N 06:07:19 87° E 06:08:14 62° S
Tsikada Rocket 3.9 06:05:58 49° SSW 06:07:47 85° W 06:13:59 10° N
Nimbus 7 Rocket 4.4 06:02:07 10° NNE 06:08:13 88° WNW 06:10:03 48° SSW
Cosmos 1602 Rocket 3.5 06:09:18 77° SW 06:09:33 81° W 06:14:03 10° N
USA 215 3.8 06:05:18 10° NE 06:11:40 57° NNW 06:18:01 10° WSW
Meteor 1-4 Rocket 3.5 06:08:38 10° NNW 06:11:12 40° NW 06:11:12 40° NW
Cosmos 1763 Rocket 4.3 06:15:45 35° ESE 06:16:06 35° ESE 06:20:43 10° NE
Cosmos 1758 Rocket 3.5 06:17:12 72° ESE 06:17:19 73° E 06:21:44 10° NNE
Meteor 1-11 4.1 06:17:12 56° SSW 06:18:28 83° W 06:24:05 10° N
EO 1 Del DPAF 4.5 06:16:38 10° NNE 06:19:28 31° ENE 06:19:28 31° ENE
Meteor 1-27 4.3 06:17:11 10° N 06:22:44 67° ENE 06:24:10 48° SE
Thor Agena Rocket 3.4 06:17:41 10° NNE 06:22:58 90° ESE 06:23:55 61° SSW
Cosmos-2242 3.0 06:20:41 10° N 06:25:05 69° E 06:25:20 67° ESE
Resurs 1-4 Rocket 4.3 06:23:25 10° ENE 06:25:52 13° E 06:27:37 11° ESE
In-Cosmos 22 Rocket 4.5 06:26:01 46° SE 06:27:11 56° E 06:32:32 10° NNE
Cosmos 1825 3.7 06:32:05 26° E 06:32:05 26° E 06:35:02 10° NNE
Cosmos 1943 Rocket 2.0 06:27:15 10° NNW 06:32:46 86° WSW 06:33:59 56° SSE
PSLV R/B 3.4 06:29:41 10° NNE 06:34:03 83° E 06:34:18 78° SSE
X-37B 3.4 06:37:56 13° ENE 06:37:56 13° ENE 06:38:21 10° ENE
Cosmos 1408 3.2 06:36:19 49° ENE 06:36:19 49° ENE 06:39:26 10° NNE
Transit 2A Rocket 4.3 06:37:32 86° SE 06:37:34 86° ESE 06:42:00 10° NNE
Cosmos 1943 3.8 06:38:48 38° SE 06:39:44 41° ESE 06:45:01 10° NE
Cosmos 405 Rocket 3.5 06:44:03 41° ENE 06:44:03 41° ENE 06:47:09 10° NNE
USA 267 3.1 06:41:13 33° SE 06:44:23 75° SW 06:50:57 10° NW
NOSS 2-3 (D) 3.6 06:44:37 60° W 06:45:07 66° NW 06:49:47 10° NNE
CZ-2D R/B 3.9 06:41:52 10° NE 06:45:31 19° E 06:47:12 16° ESE
Cosmos 1812 Rocket 4.4 06:43:58 10° NNW 06:47:58 37° W 06:47:58 37° W
Cosmos 1603 4.0 06:47:29 45° SE 06:48:37 52° ESE 06:54:05 10° NE
Cosmos 2058 3.9 06:49:06 34° E 06:49:19 34° E 06:53:02 10° NNE
Cosmos 1356 4.0 06:51:13 54° NNE 06:51:13 54° NNE 06:53:55 10° N
Cosmos 2221 3.8 06:50:37 10° NNE 06:54:29 32° ENE 06:55:40 27° ESE
Cosmos 540 Rocket 4.0 06:54:25 40° SE 06:55:15 43° ESE 07:00:05 10° NNE
Cosmos 2279 Rocket 3.9 06:51:02 10° N 06:57:17 86° W 06:59:19 46° S
DELTA 2 R/B (1) 3.9 06:59:52 45° SE 06:59:52 45° SE 07:04:35 10° E
Cosmos 1634 Rocket 4.3 06:53:40 10° NNW 06:59:47 53° W 07:01:35 40° SW
Cosmos 990 Rocket 3.9 06:56:14 10° NNW 07:01:27 89° ENE 07:02:41 54° SSE
USA 307 4.3 07:02:25 27° ESE 07:02:25 27° ESE 07:05:12 10° ENE
NOSS 2-3 (C) 4.4 07:00:52 36° W 07:02:02 45° NW 07:06:39 10° NNE
BREEZE-M DEB (TANK) 3.8 06:58:02 10° W 07:02:04 30° NNW 07:04:17 10° NE
Cosmos 841 Rocket 4.0 07:03:21 39° SE 07:04:22 45° ESE 07:09:16 10° NNE
YAOGAN 11 4.4 07:05:57 49° SE 07:06:56 64° ENE 07:11:24 10° N
SJ 16-02 2.6 07:04:34 10° NW 07:07:51 28° W 07:07:51 28° W
SL-16 R/B 3.6 07:07:20 19° WSW 07:10:24 30° NW 07:15:23 10° N
Cosmos 1656 Rocket 3.9 07:06:50 10° NNW 07:12:32 67° ENE 07:15:31 28° SE
Cosmos 1825 Rocket 4.3 07:14:08 38° W 07:14:41 39° WNW 07:18:53 10° N
Cosmos 1937 Rocket 3.7 07:10:13 10° NNW 07:15:33 69° ENE 07:17:48 35° SE
Cosmos 1898 Rocket 3.4 07:10:25 10° NNW 07:15:41 86° WSW 07:17:06 49° SSE
USA 308 3.6 07:17:46 39° ESE 07:17:46 39° ESE 07:21:19 10° ENE
Helios 1B rocket 4.1 07:15:08 10° NE 07:18:22 22° E 07:19:18 20° ESE
USA 290 4.1 07:22:19 22° E 07:22:19 22° E 07:24:31 10° NE
Cosmos 1606 3.8 07:19:30 10° N 07:23:05 37° ENE 07:24:03 31° ESE
Cosmos 2369 Rocket 2.2 07:18:40 10° NNW 07:24:20 65° WSW 07:25:57 45° S
Helios 1A 2.8 07:26:31 66° S 07:27:06 88° W 07:31:19 10° NNW
CZ-4 R/B 3.7 07:24:33 10° NNE 07:29:14 80° WNW 07:30:18 54° SSW
NOSS 2-2 (E) 3.6 07:30:04 44° ESE 07:30:04 44° ESE 07:33:13 10° NE
Exosat Rocket 4.1 07:27:42 35° SW 07:30:24 63° WNW 07:35:42 10° NNE
Nadezhda 4 Rocket 3.9 07:29:04 40° S 07:31:26 90° E 07:37:36 10° N
ATLAS 5 CENTAUR R/B 2.0 07:34:05 40° SE 07:34:17 40° ESE 07:38:16 10° NE
Cosmos 1814 Rocket 4.3 07:32:43 40° SSE 07:34:18 56° ESE 07:39:22 10° NNE
USA 305 2.9 07:34:41 60° SSE 07:34:56 62° SE 07:39:09 10° ENE
USA 229 DEB 4.3 07:32:11 22° WSW 07:36:10 49° NW 07:42:48 10° NNE
USA 229 4.3 07:32:19 23° WSW 07:36:16 49° NW 07:42:54 10° NNE
Cosmos 2263 4.1 07:33:01 10° NNW 07:38:40 68° WSW 07:40:42 40° S
Lacrosse 4 Rocket 2.9 07:36:57 10° NNW 07:40:41 33° NE 07:44:23 10° ESE
NOSS 2-2 (C) 3.4 07:43:32 49° ESE 07:43:32 49° ESE 07:46:56 10° NE
Cosmos 1437 Rocket 2.8 07:39:54 10° NNW 07:43:41 54° W 07:43:43 54° W
Cosmos 1570 Rocket 4.1 07:43:24 41° S 07:45:10 70° ESE 07:50:23 10° NNE
Aureole 3 Rocket 3.6 07:41:48 10° N 07:45:51 63° E 07:48:34 28° SSE
SL-4 R/B 4.3 07:44:27 10° NW 07:47:22 21° N 07:50:09 10° NE
FALCON 9 DEB 4.3 07:45:23 10° NW 07:48:40 43° NNE 07:51:54 10° ESE
Cosmos 372 Rocket 4.0 07:44:23 10° NNW 07:49:39 79° ENE 07:52:43 25° SSE
Cosmos 1932 4.4 07:48:06 10° NW 07:54:12 60° WSW 07:57:20 29° S
NOSS 3-1 (A) 4.5 07:52:18 17° W 07:56:02 36° NW 08:01:55 10° NNE
Lacrosse 5 rocket 4.5 07:55:16 10° N 07:57:01 13° NNE 07:58:49 10° NE
USA 306 2.8 07:56:16 50° SW 07:57:21 90° SSW 08:01:37 10° NE
Cosmos 2098 Rocket 3.6 07:56:35 37° SW 07:58:27 57° W 08:02:57 10° N
Cosmos 921 Rocket 3.0 07:59:46 47° SW 08:00:47 65° WNW 08:04:57 10° NNE
Cosmos 2208 Rocket 4.1 07:58:36 36° S 08:00:52 78° ESE 08:06:21 10° NNE
Cosmos 1842 Rocket 3.9 07:56:49 10° NNW 08:01:00 48° W 08:01:49 42° SW
ADEOS Rocket 3.9 07:54:29 10° SE 08:01:35 56° ENE 08:08:02 10° N
Cosmos 1437 2.6 07:58:49 10° N 08:01:23 67° NNE 08:01:23 67° NNE
SL-16 R/B 2.5 08:00:13 23° SSE 08:04:16 86° WSW 08:10:29 10° NNW
Resurs 1-4 Rocket 2.1 08:00:58 10° NNE 08:06:18 81° WNW 08:08:42 34° SSW
Cosmos 1825 3.9 08:06:51 19° W 08:07:18 20° WNW 08:10:08 10° NNW
X-37B 0.9 08:10:13 23° WNW 08:12:00 65° N 08:15:09 10° E
Cosmos 2151 2.9 08:11:14 38° S 08:12:47 79° E 08:17:00 10° N
Cosmos 1092 Rocket 3.9 08:09:41 31° SSW 08:12:48 74° W 08:18:59 10° N
MOZ.5/SAFIR/RUBIN 5/SL-8 4.5 08:12:42 33° SW 08:13:44 37° W 08:18:09 10° NNW
CZ-4C R/B 3.8 08:12:05 13° SSE 08:14:46 19° ESE 08:18:30 10° ENE
Cosmos 1943 Rocket 4.2 08:14:04 10° W 08:15:28 11° W 08:15:28 11° W
Cosmos 1242 Rocket 3.1 08:12:16 10° NNW 08:15:39 38° W 08:15:50 38° WSW
Meteor 2-19 Rocket 4.5 08:12:44 30° SSW 08:15:53 69° W 08:22:00 10° N
ADEOS II 2.4 08:12:10 10° NNE 08:17:23 60° E 08:20:33 23° S
Cosmos 1076 Rocket 3.9 08:16:52 37° SW 08:18:06 49° WNW 08:22:14 10° N
NPP 3.6 08:13:44 10° NNE 08:19:09 79° WNW 08:21:57 30° SSW
Cosmos 1943 4.4 08:20:36 18° WSW 08:23:52 31° NW 08:28:53 10° N
Meteor 2-3 Rocket 3.8 08:20:40 23° S 08:24:10 72° E 08:29:45 10° NNE
CZ-2D R/B 2.4 08:20:49 10° N 08:25:55 55° WNW 08:28:31 28° SW
AQUA 3.8 08:23:38 10° N 08:28:24 76° WNW 08:30:49 29° SSW
IDEFIX/ARIANE 42P 3.5 08:26:16 10° NNE 08:31:15 42° E 08:35:30 14° SSE
Cosmos 2221 3.9 08:28:34 10° NW 08:31:49 21° W 08:32:29 20° W
GPS 2-04 Rocket1 3.7 08:32:08 28° S 08:32:08 28° S 08:35:15 10° ESE
ERBS 2.8 08:35:36 36° S 08:36:22 44° SE 08:39:28 10° ENE
Cosmos 1271 Rocket 4.1 08:36:45 10° N 08:40:16 37° ENE 08:43:46 10° SE
Cosmos 1782 3.2 08:36:19 10° N 08:40:18 61° E 08:43:51 13° SSE
USA 307 3.6 08:38:30 19° W 08:41:17 48° NNW 08:45:26 10° NE
NOSS 2-2 (D) 4.0 08:39:47 24° W 08:41:19 37° NW 08:44:46 10° NNE
Cosmos 1809 Rocket 4.5 08:39:11 19° S 08:43:44 90° E 08:49:58 10° N
Cosmos 1633 4.0 08:43:38 21° W 08:44:28 23° WNW 08:47:22 10° NNW
DELTA 2 R/B (1) 3.6 08:40:36 13° W 08:45:24 62° S 08:50:53 10° ESE
Meteor 1-26 Rocket 4.3 08:40:22 10° N 08:46:16 89° W 08:52:16 10° S
CZ-4C R/B 4.2 08:43:47 10° SE 08:47:03 42° ENE 08:50:21 10° N
CBERS-1 4.2 08:43:43 10° NNE 08:48:52 71° ESE 08:52:55 17° S
IRS-1D 3.5 08:44:22 10° NNE 08:49:31 89° E 08:53:07 19° SSW
FALCON 9 DEB 4.3 08:46:59 10° NW 08:49:57 41° NNE 08:52:54 10° ESE
Helios 1B rocket 3.6 08:50:01 10° N 08:53:37 30° WNW 08:55:36 20° WSW
USA 290 4.2 08:55:04 15° W 08:56:17 18° WNW 08:58:36 10° NNW
USA 308 4.0 08:53:50 13° W 08:57:19 40° NNW 09:01:20 10° NE
Tianhe-1 3.1 08:58:01 15° SSE 08:58:33 15° SSE 09:00:30 10° ESE
Cosmos 1328 Rocket 3.8 08:55:51 10° N 09:00:13 70° E 09:04:35 10° SSE
Cosmos 2292 Rocket 3.4 09:03:15 25° SW 09:04:22 35° WNW 09:07:08 10° N
Cosmos 1933 4.2 09:04:40 10° NNW 09:08:22 33° W 09:10:38 19° SW
Meteor 1-28 Rocket 3.4 09:05:33 16° S 09:08:23 53° W 09:12:07 10° NNW
BREEZE-M R/B 3.3 09:06:02 11° W 09:09:16 61° NNW 09:16:12 10° ENE
Cosmos 1553 Rocket 4.1 09:04:05 10° NNW 09:10:14 58° W 09:16:15 10° S
MSX 4.0 09:06:48 10° NNE 09:12:36 74° ESE 09:18:19 10° S
Meteor 1-29 4.2 09:10:02 10° N 09:13:00 28° WNW 09:14:47 18° WSW
Meteor 2-21 Rocket 4.5 09:09:18 12° S 09:15:03 81° W 09:21:17 10° N
USA 305 4.4 09:11:19 10° W 09:15:07 31° NNW 09:18:56 10° NE
SeaSat 1 2.6 09:11:01 10° NNE 09:15:57 71° ESE 09:20:26 12° SSW
S3M 4.0 09:10:21 10° N 09:16:31 77° W 09:22:43 10° S
Cosmos 2298 Rocket 4.5 09:12:06 10° NNW 09:17:05 42° WSW 09:22:03 10° S
ATLAS 5 CENTAUR R/B 3.2 09:15:46 10° W 09:19:03 23° NW 09:22:40 10° NNE
Lacrosse 4 Rocket 2.6 09:16:00 10° WNW 09:19:09 22° WSW 09:21:02 16° SW
Cosmos 1151 Rocket 3.3 09:18:51 10° NNW 09:22:58 48° W 09:27:03 10° SSW
USA 281 3.2 09:16:58 10° SSE 09:23:32 79° WSW 09:30:09 10° NNW
FALCON 9 DEB 4.1 09:22:32 10° WNW 09:25:23 25° SW 09:28:13 10° S
SL-4 R/B 3.3 09:24:17 10° NW 09:27:39 36° NNE 09:30:52 10° E
Meteor 2-6 Rocket 4.3 09:24:05 10° N 09:30:01 85° W 09:35:44 10° S
Cosmos 1766 Rocket 4.3 09:27:48 14° SW 09:31:19 39° WNW 09:35:32 10° N
Cosmos 1515 Rocket 3.6 09:27:15 10° N 09:31:43 86° E 09:36:09 10° S
Alouette 2 Rocket 3.9 09:29:48 10° NNW 09:33:12 39° W 09:37:18 10° SSW
Cosmos 1833 Rocket 3.3 09:28:01 10° S 09:33:31 56° ESE 09:39:02 10° NNE
Cosmos 1408 Rocket 3.6 09:29:11 10° SSW 09:33:36 75° W 09:38:06 10° N
Cosmos 1862 3.4 09:30:48 10° SSW 09:34:46 67° W 09:38:50 10° N
Cosmos 1125 Rocket 4.1 09:30:44 10° NW 09:35:33 37° WSW 09:40:22 10° SSW
Lacrosse 5 rocket 2.1 09:33:18 10° NW 09:36:50 50° NE 09:40:28 10° ESE
IRS-P3 4.2 09:31:59 10° N 09:37:19 75° WNW 09:42:37 10° SSW
CZ-4B R/B 3.6 09:34:30 10° NNE 09:39:48 88° ESE 09:44:59 10° SSW
ARIANE 5 R/B 2.5 09:37:30 10° NNE 09:42:31 83° WNW 09:47:32 10° SSW
BREEZE-M DEB (TANK) 3.7 09:38:51 11° SW 09:42:49 33° SSE 09:45:27 10° E
NOSS 3-2 (A) 4.2 09:35:34 10° NW 09:43:13 87° NE 09:51:53 10° SE
Meteor 1-27 Rocket 4.4 09:38:33 10° N 09:44:05 59° ENE 09:49:30 10° SSE
Resurs 1-4 Rocket 4.2 09:43:15 10° NW 09:45:14 12° WNW 09:47:14 10° WNW
COSMOS 2441 4.5 09:41:27 10° N 09:46:14 64° WNW 09:50:58 10° SSW
ADEOS Rocket 4.2 09:41:05 10° SSW 09:47:15 29° W 09:53:01 10° NW
X-37B 1.0 09:45:34 10° W 09:48:35 42° SSW 09:51:36 10° SE
SL-16 R/B 4.3 09:45:59 10° WSW 09:48:42 13° W 09:51:25 10° WNW
deb Kosmos-1763 4.3 09:49:28 10° SW 09:52:54 52° WNW 09:56:22 10° N
Cosmos 2266 Rocket 4.3 09:48:14 10° SSW 09:54:06 48° WNW 09:59:58 10° N
ADEOS II 3.7 09:52:55 10° NNW 09:56:36 20° WNW 10:00:16 10° WSW
Cosmos 2082 Rocket 3.3 09:51:45 10° S 09:57:01 43° ESE 10:02:17 10° NE
FALCON 9 DEB 2.9 09:55:43 10° WNW 09:58:47 55° SW 10:01:50 10° SE
ASTEX 1 4.4 09:57:05 10° SSW 10:01:22 29° W 10:05:40 10° NNW
